Regional Weather Roundup
Issued by NWS

Home | Current Version | Previous Version | Graphics & Text | Print | Product List | Glossary On
Versions: 1 2 3 4 5 6 7 8 9 10 11 12 13 14 15 16 17 18 19 20 21 22 23 24 25 26 27 28 29 30 31 32 33 34 35 36 37 38 39 40 41 42 43 44 45 46 47 48 49 50
000
ASUS43 KLOT 280000
RWRIL

ILLINOIS REGIONAL WEATHER ROUNDUP
NATIONAL WEATHER SERVICE CHICAGO/ROMEOVILLE IL
700 PM CDT WED MAY 27 2015

NOTE: "FAIR" INDICATES FEW OR NO CLOUDS BELOW 12,000 FEET WITH NO
SIGNIFICANT WEATHER AND/OR OBSTRUCTIONS TO VISIBILITY.

* THESE STATIONS ARE NOT UNDER NWS QUALITY CONTROL. THEY ALSO MAY NOT
  REPORT WEATHER SUCH AS PRECIPITATION OR FOG.

ILZ001-002-007-009-015-016-024-280100-
NORTHWEST ILLINOIS

CITY           SKY/WX    TMP DP  RH WIND       PRES   REMARKS
MOLINE         SUNNY     77  56  48 W7        30.06R
6HR MIN TEMP:  75; 6HR MAX TEMP:  80;

STERLING*      SUNNY     77  57  50 NW5       30.06S
$$

ILZ003-004-008-010-011-017-018-280100-
NORTH CENTRAL ILLINOIS

CITY           SKY/WX    TMP DP  RH WIND       PRES   REMARKS
ROCKFORD       MOSUNNY   75  55  49 W7        30.06S
6HR MIN TEMP:  70; 6HR MAX TEMP:  77;

$$

ILZ005-006-012>014-019>023-280100-
NORTHEAST ILLINOIS

CITY           SKY/WX    TMP DP  RH WIND       PRES   REMARKS
CHICAGO-OHARE  SUNNY     72  56  57 W5        30.04R
6HR MIN TEMP:  67; 6HR MAX TEMP:  74; 6HR PCP: TRACE;

CHICAGO-MIDWAY MOSUNNY   75  54  47 NW8       30.04S
6HR MIN TEMP:  67; 6HR MAX TEMP:  77; 6HR PCP: TRACE;

AURORA         SUNNY     73  54  51 N8        30.06R
6HR MIN TEMP:  70; 6HR MAX TEMP:  76;

WAUKEGAN       SUNNY     68  56  65 E3        30.04S
6HR MIN TEMP:  65; 6HR MAX TEMP:  72; 6HR PCP: TRACE;

DUPAGE AIRPORT SUNNY     73  55  53 NW7       30.05R
6HR MIN TEMP:  68; 6HR MAX TEMP:  75; 6HR PCP: TRACE;

WHEELING       SUNNY     73  54  51 NW7       30.06R
6HR MIN TEMP:  64; 6HR MAX TEMP:  74; 6HR PCP:  0.02;

NORTHERLY ISL    N/A     63  56  78 NE1         N/A
$$

LMZ740>746-280100-
SOUTHERN LAKE MICHIGAN

STATION/POSITION SKY/WX   TEMP    WIND        PRES    VSBY  WAVE
                          AIR SEA DIR/SP/G                  HT/PER
                          (F)     (DEG/KT/KT) (MB)    (MI)  (FT/S)
SOUTHERN BUOY              47 38  270/  4/  6 1017.8R         1
BURNHAM HARBOR             72      30/  2/ 12   N/A
BURNS HARBOR               63      60/  5/  8 1018.3R
MICHIGAN CITY 6N           56 53  180/  2/  2   N/A           1/ 3
ST. JOSEPH                 58 56  300/  4/  4   N/A           1/ 3
$$

ILZ025>027-034>036-040-047-049-050-058-095>099-280100-
WEST-CENTRAL ILLINOIS

CITY           SKY/WX    TMP DP  RH WIND       PRES   REMARKS
QUINCY         SUNNY     76  56  49 N5        30.07F
$$

ILZ028>032-037-038-041>044-048-051>054-059>061-280100-
CENTRAL ILLINOIS

CITY           SKY/WX    TMP DP  RH WIND       PRES   REMARKS
DECATUR        SUNNY     76  57  51 NW10      30.08R
PEORIA         SUNNY     80  55  42 VRB3      30.06S HX  80
6HR MIN TEMP:  75; 6HR MAX TEMP:  82;

SPRINGFIELD    SUNNY     79  57  46 NW7       30.08R HX  80
6HR MIN TEMP:  78; 6HR MAX TEMP:  81;

TAYLORVILLE    NOT AVBL
$$

ILZ033-039-045-046-055>057-062-063-280100-
EAST-CENTRAL ILLINOIS

CITY           SKY/WX    TMP DP  RH WIND       PRES   REMARKS
CHAMPAIGN      SUNNY     77  57  50 NW9       30.07R
$$

ILZ079-100>102-280100-
SOUTHWEST ILLINOIS

CITY           SKY/WX    TMP DP  RH WIND       PRES   REMARKS
BELLEVILLE     SUNNY     80  61  51 VRB5      30.05R HX  81
CAHOKIA*       MOSUNNY   80  57  45 NW9       30.06R HX  80
$$

ILZ064>066-069>071-074>076-080>082-084>086-088>090-092>094-280100-
SOUTH-CENTRAL ILLINOIS

CITY           SKY/WX    TMP DP  RH WIND       PRES   REMARKS
CARBONDALE     PTSUNNY   78  68  71 S8        30.07R HX  80
6HR MIN TEMP:  77; 6HR MAX TEMP:  82;

MARION         PTSUNNY   79  70  73 MISG      30.08R HX  81
MT. VERNON     PTSUNNY   81  63  54 W3        30.07R HX  82
$$

ILZ067-068-072-073-078-083-087-091-280100-
SOUTHEAST ILLINOIS

CITY           SKY/WX    TMP DP  RH WIND       PRES   REMARKS
LAWRENCEVILLE  CLOUDY    80  62  54 SW9       30.06S HX  81
$$

ABBREVIATIONS USED IN REMARKS
   TC - TEMPERATURE IN CELSIUS
  WCI - WIND CHILL INDEX
   HX - HEAT INDEX
  VSB - VISIBILITY
$$




USA.gov is the U.S. government's official web portal to all federal, state and local government web resources and services.